Torna al catalogo

BRITE-PL

AttivoScienzaSSO
NORAD 39431·PAYLOAD·🇵🇱 Poland

Lanciato Nov 21, 2013 da Dombarovsky

Loading…

Prossimi Passaggi (prossime 24 ore)

TLE

AggiornatoSource: Space-Track

Epoca: Sep 14, 2026, 12:56 UTC

1 39431U 13066R   26257.53892948  .00000478  00000-0  10363-3 0  9991
2 39431  97.8013   3.5008 0191048  93.2522 269.0550 14.51458305676891

Traccia BRITE-PL in tempo reale con AllMySat

Download on the App Store